COSMOS 1275 DEB, 12697

Orbit data source: Space-Track

COSMOS 1275 DEB, 12697 is space debris in LEO originally from a launch on Thu, 04 Jun 1981 UTC launched from the Plesetsk Missile And Space Complex (PKMTR). Debris objects in space refer to the collection of defunct objects orbiting the Earth. Examples of debris include non-operational satellites, rocket bodies, and fragments generated from explosions, collisions, or faulty payload assembly.

Loading next visibility...
Identifier
12697, 1981-053AR
Orbit
LEO
Country
Flag of CISCIS
Related business
Manufacturer
Unknown
Mission
Spacecraft
Bus & Motor
Unknown
Mass
Unknown
Launch date (UTC)
1981-06-04 (45 years ago)
Launch vehicle
Unknown
Launch site
Plesetsk Missile And Space Complex (PKMTR)
Object type
Payload
Rocket body
Debris
Shape & HBR
Unknown shape, 0.1 m
Radar Cross Section
Medium (>0.1 m² and <1 m²)

Expand to show TLE details & history
Last TLE update: 1 day ago

TLE from 1 day ago
0 COSMOS 1275 DEB
1 12697U 81053AR  26206.38617197  .00000568  00000-0  49974-3 0  9995
2 12697  82.7791 349.1347 0084742  68.4537 321.4703 13.82077494252071
Epoch: 2026-07-25T09:16Z
TLE epoch observation values (Epoch: 2026-07-25T09:16:05.258Z)
Latitude
29.10617°
Longitude
-88.96277°
Altitude
911.712 km
Speed
7.423 km/s
True Right ascension
23h 32m 38s
True Declination
28° 57' 48"
Sunlit
Object was in daylight at epoch
Visualization orbit readout
Latitude
Unknown
Longitude
Unknown
Altitude
Unknown
Speed
Unknown
Apparent Right ascension
Unknown
Apparent Declination
Unknown
Sunlit
N/A
Visualization observer readout
Local Sidereal Time
04:18:33
Azimuth
Unknown
Elevation
Unknown
Doppler factor
Unknown
Orbital elements
Apogee altitude
1,015.804 km
Perigee altitude
891.541 km
Semi-major axis
7,331.809 km
Eccentricity
0.00847
Inclination
82.7791°
RAAN
349.1347°
Arg. of periapsis
68.4537°
True anomaly
320.86036°
Mean anomaly
321.4703°
Eccentric anomaly
321.16584°
Mean motion
3.45722 °/min
Orbital period
104.13 mins
BSTAR
0.00049974
Loading maneuver chart data...
Computing Atmospheric mass density...

Documentation

Showing up to 5 results
|